Location: Cazarilh
(42.9578°N, 0.5819°E)
Time: 21:26:49
(UTC+00:00)

CZ-4B R/B - Pass Details

Date: 11 December 2019
Orbit: 809 x 881 km, 99.1° (Epoch: 24 January)

Event Time Altitude Azimuth Distance (km) Brightness Sun altitude
Rises 05:12:19 0° 19° (NNE) 3,454 6.5 -22.2°
Reaches altitude 10° 05:14:47 10° 24° (NNE) 2,522 5.8 -21.8°
Maximum altitude 05:20:14 51° 100° (E) 1,092 4.1 -20.8°
Drops below altitude 10° 05:25:43 10° 176° (S) 2,529 5.9 -19.8°
Sets 05:28:11 0° 181° (S) 3,465 6.5 -19.4°
